TA2VIP-13 Weather Reports


time (UTC)temp
F
wind
direction
speed
knots
gust
knots
rain 1hr
in
rain 24hr
in
rain mn
in
humidity
%
barometer
mb
20260507095312 59 270 4.3 4.3 0.00 0.00 0.00 50 1015.0
20260507094312 59 270 4.3 4.3 0.00 0.00 0.00 50 1015.0
20260507093312 59 270 4.3 4.3 0.00 0.00 0.00 50 1015.0
20260507092312 60 270 6.1 6.1 0.00 0.00 0.00 50 1015.0
20260507091312 60 270 6.1 6.1 0.00 0.00 0.00 50 1015.0
20260507090312 60 270 6.1 6.1 0.00 0.00 0.00 50 1015.0
20260507085312 59 240 7.0 7.0 0.00 0.00 0.00 50 1015.0
20260507084312 59 240 7.0 7.0 0.00 0.00 0.00 50 1015.0
20260507083312 59 240 7.0 7.0 0.00 0.00 0.00 50 1015.0
20260507082312 57 230 5.2 5.2 0.00 0.00 0.00 50 1015.0
20260507081312 57 230 5.2 5.2 0.00 0.00 0.00 50 1015.0
20260507080312 57 230 5.2 5.2 0.00 0.00 0.00 50 1015.0
20260507075312 57 0 0.0 0.0 0.00 0.00 0.00 50 1015.0
20260507074312 57 0 0.0 0.0 0.00 0.00 0.00 50 1015.0
20260507073312 57 0 0.0 0.0 0.00 0.00 0.00 50 1015.0
20260507072242 53 0 0.0 0.0 0.00 0.00 0.00 50 1015.0
20260507071242 53 0 0.0 0.0 0.00 0.00 0.00 50 1015.0
20260507070242 53 0 0.0 0.0 0.00 0.00 0.00 50 1015.0
20260507065242 51 0 0.0 0.0 0.00 0.00 0.00 50 1015.0
20260507064242 51 0 0.0 0.0 0.00 0.00 0.00 50 1015.0
20260507063242 51 0 0.0 0.0 0.00 0.00 0.00 50 1015.0
20260507062242 50 0 0.0 0.0 0.00 0.00 0.00 50 1015.0
20260507061242 50 0 0.0 0.0 0.00 0.00 0.00 50 1015.0
20260507060242 50 0 0.0 0.0 0.00 0.00 0.00 50 1015.0
20260507055242 44 0 0.0 0.0 0.00 0.00 0.00 50 1015.0
20260507054242 44 0 0.0 0.0 0.00 0.00 0.00 50 1015.0
20260507053242 44 0 0.0 0.0 0.00 0.00 0.00 50 1015.0
20260507052242 41 0 0.0 0.0 0.00 0.00 0.00 50 1015.0
20260507051242 41 0 0.0 0.0 0.00 0.00 0.00 50 1015.0
20260507050242 41 0 0.0 0.0 0.00 0.00 0.00 50 1015.0
20260507045243 39 40 2.6 2.6 0.00 0.00 0.00 50 1015.0
20260507044242 39 40 2.6 2.6 0.00 0.00 0.00 50 1015.0
20260507043242 39 40 2.6 2.6 0.00 0.00 0.00 50 1015.0
20260507042242 35 50 2.6 2.6 0.00 0.00 0.00 50 1015.0
20260507041242 35 50 2.6 2.6 0.00 0.00 0.00 50 1015.0
20260507040242 35 50 2.6 2.6 0.00 0.00 0.00 50 1015.0
20260507035242 35 0 0.0 0.0 0.00 0.00 0.00 50 1015.0
20260507034242 35 0 0.0 0.0 0.00 0.00 0.00 50 1015.0
20260507033242 35 0 0.0 0.0 0.00 0.00 0.00 50 1015.0
20260507032242 33 0 0.0 0.0 0.00 0.00 0.00 50 1015.0
20260507031242 33 0 0.0 0.0 0.00 0.00 0.00 50 1015.0
20260507030212 33 0 0.0 0.0 0.00 0.00 0.00 50 1015.0
20260507025212 35 0 0.0 0.0 0.00 0.00 0.00 50 1015.0
20260507024212 35 0 0.0 0.0 0.00 0.00 0.00 50 1015.0
20260507023212 35 0 0.0 0.0 0.00 0.00 0.00 50 1015.0
20260507022212 33 50 4.3 4.3 0.00 0.00 0.00 50 1015.0
20260507021212 33 50 4.3 4.3 0.00 0.00 0.00 50 1015.0
20260507020212 33 50 4.3 4.3 0.00 0.00 0.00 50 1015.0
20260507015212 35 30 2.6 2.6 0.00 0.00 0.00 50 1015.0
20260507014212 35 30 2.6 2.6 0.00 0.00 0.00 50 1015.0
20260507013212 35 30 2.6 2.6 0.00 0.00 0.00 50 1015.0
20260507012212 35 0 0.0 0.0 0.00 0.00 0.00 50 1015.0
20260507011212 35 0 0.0 0.0 0.00 0.00 0.00 50 1015.0
20260507010212 35 0 0.0 0.0 0.00 0.00 0.00 50 1015.0
20260507005212 37 0 0.0 0.0 0.00 0.00 0.00 50 1015.0
20260507003212 37 0 0.0 0.0 0.00 0.00 0.00 50 1015.0
20260507002212 35 0 0.0 0.0 0.00 0.00 0.00 50 1015.0
20260507001212 35 0 0.0 0.0 0.00 0.00 0.00 50 1015.0
20260507000212 35 0 0.0 0.0 0.00 0.00 0.00 50 1015.0
20260506235212 39 190 1.7 1.7 0.00 0.00 0.00 50 1015.0
20260506234212 39 190 1.7 1.7 0.00 0.00 0.00 50 1015.0
20260506233212 39 190 1.7 1.7 0.00 0.00 0.00 50 1015.0
20260506232213 41 0 0.0 0.0 0.00 0.00 0.00 50 1015.0
20260506231213 41 0 0.0 0.0 0.00 0.00 0.00 50 1015.0
20260506230212 41 0 0.0 0.0 0.00 0.00 0.00 50 1015.0
20260506225213 41 0 0.0 0.0 0.00 0.00 0.00 50 1015.0
20260506224213 41 0 0.0 0.0 0.00 0.00 0.00 50 1015.0
20260506223143 41 0 0.0 0.0 0.00 0.00 0.00 50 1015.0
20260506222143 39 310 2.6 2.6 0.00 0.00 0.00 50 1015.0
20260506221143 39 310 2.6 2.6 0.00 0.00 0.00 50 1015.0
20260506220143 39 310 2.6 2.6 0.00 0.00 0.00 50 1015.0
20260506215143 41 20 3.5 3.5 0.00 0.00 0.00 50 1015.0
20260506214143 41 20 3.5 3.5 0.00 0.00 0.00 50 1015.0
20260506213143 41 20 3.5 3.5 0.00 0.00 0.00 50 1015.0
20260506212143 41 40 4.3 4.3 0.00 0.00 0.00 50 1015.0
20260506211143 41 40 4.3 4.3 0.00 0.00 0.00 50 1015.0
20260506210143 41 40 4.3 4.3 0.00 0.00 0.00 50 1015.0
20260506205143 42 70 3.5 3.5 0.00 0.00 0.00 50 1015.0
20260506204143 42 70 3.5 3.5 0.00 0.00 0.00 50 1015.0
20260506203143 42 70 3.5 3.5 0.00 0.00 0.00 50 1015.0
20260506202143 44 0 0.0 0.0 0.00 0.00 0.00 50 1015.0
20260506201143 44 0 0.0 0.0 0.00 0.00 0.00 50 1015.0
20260506200143 44 0 0.0 0.0 0.00 0.00 0.00 50 1015.0
20260506195213 39 0 0.0 0.0 0.00 0.00 0.00 50 1015.0